Regional Weather Roundup
Issued by NWS Cleveland, OH

Home | Current Version | Previous Version | Graphics & Text | Print | Product List | Glossary On
Versions: 1 2 3 4 5 6 7 8 9 10 11 12 13 14 15 16 17 18 19 20 21 22 23 24 25 26 27 28 29 30 31 32 33 34 35 36 37 38 39 40 41 42 43 44 45 46 47 48 49 50
000
ASUS41 KCLE 100900
RWRCLE
OHIO REGIONAL WEATHER ROUNDUP
NATIONAL WEATHER SERVICE WILMINGTON, OH
400 AM EST SAT DEC 10 2016

NOTE: "FAIR" INDICATES FEW OR NO CLOUDS BELOW 12,000 FEET WITH NO
SIGNIFICANT WEATHER AND/OR OBSTRUCTIONS TO VISIBILITY.

OHZ001>008-015>018-024>027-034-035-043-044-101000-
   NORTHWEST OHIO

CITY           SKY/WX    TMP DP  RH WIND       PRES   REMARKS
DEFIANCE       CLOUDY    23  13  65 W6        30.49R WCI  16
FINDLAY        CLOUDY    22  14  71 W14       30.47R WCI   9
TOLEDO EXPRESS CLOUDY    23  16  74 W16       30.46S WCI  10
TOLEDO EXEC    CLOUDY    24  17  74 W13       30.47R WCI  12
LIMA           FAIR      21  17  84 W14       30.48R WCI   8
$$

OHZ009>014-019>023-028>033-038-089-101000-
   NORTHEAST OHIO

CITY           SKY/WX    TMP DP  RH WIND       PRES   REMARKS
CLE-HOPKINS    CLOUDY    26  17  68 SW14      30.44S WCI  14
CLE-LAKEFRONT  LGT SNOW  26  20  77 SW20      30.41S WCI  12
CUY CO. ARPT   NOT AVBL
LORAIN-ELYRIA  CLOUDY    23  15  71 W14       30.44S WCI  11
ASHTABULA      LGT SNOW  23  21  92 SW9       30.38S VSB 3/4 WCI  13
AKRON-CANTON   CLOUDY    24  17  74 W8        30.42R WCI  15
WOOSTER        NOT AVBL
MANSFIELD      CLOUDY    20  16  84 SW9       30.43R WCI   9
YOUNGSTOWN     CLOUDY    24  15  68 W12       30.38R WCI  13
$$

OHZ042-051>053-060>062-070>072-077>081-101000-
  SOUTHWEST OHIO

CITY           SKY/WX    TMP DP  RH WIND       PRES   REMARKS
CINC-COVINGTON CLOUDY    20  16  84 W3        30.54R
CINC-LUNKEN    FAIR      21  17  84 S5        30.59R WCI  15
HAMILTON       CLOUDY    23  17  78 SW6       30.57R WCI  16
DAYTON         NOT AVBL
WRIGHT-PAT AFB NOT AVBL
DAYTON GENERAL FLURRIES  22  17  81 SW6       30.52R WCI  14
WILMINGTON     FLURRIES  21  16  81 W9        30.52R WCI  11
$$

OHZ036-037-039>041-045>050-054>059-063>069-073>076-082>088-101000-
  CENTRAL AND SOUTHEAST OHIO

CITY           SKY/WX    TMP DP  RH WIND       PRES   REMARKS
COLUMBUS       CLOUDY    24  20  84 SW13      30.50S WCI  12
OSU AIRPORT    FLURRIES  24  19  81 W8        30.50R WCI  15
BOLTON FIELD   NOT AVBL
RICKENBACK AFB NOT AVBL
NEWARK         CLOUDY    24  19  81 SW7       30.49S WCI  16
MARION         FAIR      21  16  81 W8        30.48R WCI  11
LANCASTER      FLURRIES  23  19  85 W8        30.51S WCI  14
ZANESVILLE     CLOUDY    23  18  81 SW9       30.49S WCI  13
NEW PHILLY     CLOUDY    24  18  77 W7        30.47S WCI  16
$$




USA.gov is the U.S. government's official web portal to all federal, state and local government web resources and services.